Location: Christchurch
(43.5330°S, 172.6330°E)
Time: 18:22:05
(UTC+13:00)

Cosmos 1633 Rocket - Pass Details

Date: 24 January 2019
Orbit: 606 x 625 km, 82.5° (Epoch: 15 October)

Event Time Altitude Azimuth Distance (km) Brightness Sun altitude
Rises 22:07:22 0° 196° (SSW) 2,911 7.5 -10.4°
Reaches altitude 10° 22:09:41 10° 202° (SSW) 1,999 6.7 -10.7°
Maximum altitude 22:13:51 42° 272° (W) 897 4.3 -11.3°
Drops below altitude 10° 22:17:59 10° 342° (NNW) 1,980 5.4 -11.8°
Sets 22:20:16 0° 349° (N) 2,879 6.2 -12.1°
